SCP
0 0 0 0 0 0 0 0 0 0 0 0 0 0 0 0 0 0 0 0 0 0 0 0 0 0 0 0 0 0 -0 0 0 0 0 0 0 0 0 0 0 0 0 0
0 0 0 0 0 0 0 0 0 0 0 0 0 0 0 0 0 0 0 0 0 0 0 0 0 0 0 0 0 0 -0 0 0 0 0 0 0 0 0 0 0 0 0 0
0 0 0 0 0 0 0 0 0 0 0 0 0 0 0 0 0 0 0 0 0 0 0 0 0 0 0 0 0 0 0 0 0 0 0 0 0 0 0 0 0 0 0 0
0 0 0 0 0 0 0 0 0 0 0 0 0 0 0 0 0 0 0 0 0 0 0 0 0 0 0 0 0 0 0 0 0 0 0 0 0 0 0 0 0 0 0 0
0 0 0 0 0 0 0 0 0 0 0 0 0 0 0 0 0 0 0 0 0 0 0 0 0 0 0 0 0 0 0 0 0 0 0 0 0 0 0 0 0 0 0 0
0 0 0 0 0 0 0 0 0 0 0 0 0 0 0 0 0 0 0 0 0 0 0 0 0 0 0 0 0 0 0 0 0 0 0 0 0 0 0 0 0 0 0 0
0 0 0 0 0 0 0 0 0 0 0 0 0 0 0 0 0 0 0 0 0 0 0 0 0 0 0 0 0 0 0 0 0 0 0 0 0 0 0 0 0 0 0 0
0 0 0 0 0 0 0 0 0 0 0 0 0 0 0 0 0 0 0 0 0 0 0 0 0 0 0 0 0 0 0 0 0 0 0 0 0 0 0 0 0 0 0 0
0 0 0 0 0 0 0 0 0 0 0 0 0 0 0 0 0 0 0 0 0 0 0 0 0 0 0 0 0 0 0 0 0 0 0 0 0 0 0 0 0 0 0 0
0 0 0 0 0 0 0 0 0 0 0 0 0 0 0 0 0 0 0 0 0 0 0 0 0 0 0 0 0 0 0 0 0 0 0 0 0 0 0 0 0 0 0 0
0 0 0 0 0 0 0 0 0 0 0 0 0 0 0 0 0 0 0 0 0 0 0 0 0 0 0 0 0 0 0 0 0 0 0 0 0 0 0 0 0 0 0 0
0 0 0 0 0 0 0 0 -0 -0 -0 -0 0 0 0 0 0 0 0 0 0 0 0 0 0 0 0 0 0 0 0 0 0 0 0 0 0 0 0 0 0 0 0 0
0 0 0 0 0 0 0 0 0 0 0 0 0 0 0 0 0 0 0 0 0 0 0 0 0 0 0 0 0 0 0 0 0 0 0 0 0 0 0 0 0 0 0 0
0 0 0 0 0 0 0 0 0 0 0 0 0 0 0 0 0 0 0 0 0 0 0 0 0 0 0 0 0 0 0 0 0 0 0 0 0 0 0 0 0 0 0 0
0 0 0 0 0 0 0 0 0 0 0 0 0 0 0 0 0 0 0 0 0 0 0 0 0 0 0 0 0 0 0 0 0 0 0 0 0 0 0 0 0 0 0 0
0 0 0 0 0 0 0 0 0 0 0 0 0 0 0 0 0 0 0 0 0 0 0 0 0 0 0 0 0 0 0 0 0 0 0 0 0 0 0 0 0 0 0 0
0 0 0 0 0 0 0 0 0 0 0 0 0 0 0 0 0 0 0 0 0 0 0 0 0 0 0 0 0 0 0 0 0 0 0 0 0 0 0 0 0 0 0 0
0 0 0 0 0 0 0 0 0 0 0 0 0 0 0 0 0 0 0 0 0 0 0 0 0 0 0 0 0 0 0 0 0 0 0 0 0 0 0 0 0 0 0 0
0 0 0 0 0 0 0 0 0 0 0 0 0 0 0 0 0 0 0 0 0 0 0 0 0 0 0 0 0 0 0 0 0 0 0 0 0 0 0 0 0 0 0 0
0 0 0 0 0 0 0 0 0 0 0 0 0 0 0 0 0 0 0 0 0 0 0 0 0 0 0 0 0 0 0 0 0 0 0 0 0 0 0 0 0 0 0 0
0 0 0 0 0 0 0 0 0 0 0 0 0 0 0 0 0 0 0 0 0 0 0 0 0 0 0 0 0 0 0 0 0 0 0 0 0 0 0 0 0 0 0 0
0 0 0 0 0 0 0 0 0 0 0 0 0 0 0 0 0 0 0 0 0 0 0 0 0 0 0 0 0 0 0 0 0 0 0 0 0 0 0 0 0 0 0 0
0 0 0 0 0 0 0 0 0 0 0 0 0 0 0 0 0 0 0 0 0 0 0 0 0 0 0 0 0 0 0 0 0 0 0 0 0 0 0 0 0 0 0 0
0 0 0 0 0 0 0 0 0 0 0 0 0 0 0 0 0 0 0 0 0 0 0 0 0 0 0 0 0 0 0 0 0 0 0 0 0 0 0 0 0 0 0 0
0 0 0 0 0 0 0 0 0 0 0 0 0 0 0 0 0 0 0 0 0 0 0 0 0 0 0 0 0 0 0 0 0 0 0 0 0 0 0 0 0 0 0 0
0 0 0 0 0 0 0 0 0 0 0 0 0 0 0 0 0 0 0 0 0 0 0 0 0 0 0 0 0 0 0 0 0 0 0 0 0 0 0 0 0 0 0 0
0 0 0 0 0 0 0 0 0 0 0 0 0 0 0 0 0 0 0 0 0 0 0 0 0 0 0 0 0 0 0 0 0 0 0 0 0 0 0 0 0 0 0 0
Wind_Speed
9 8 7 9 9 10 13 14 16 17 17 17 15 13 11 9 9 10 11 12 13 13 13 13 13 13 12 11 10 9 9 8 7 7 6 5 5 5 6 6 6 5 5 5
11 9 8 12 14 14 15 16 17 18 19 17 16 13 11 11 11 12 13 14 14 14 14 14 14 13 13 12 11 10 10 9 8 7 7 7 6 6 6 6 6 6 7 6
13 9 8 14 12 13 12 12 14 16 17 15 14 13 12 11 11 13 14 14 14 15 14 14 14 14 14 13 12 11 10 9 8 8 7 7 6 6 7 7 7 7 7 7
11 12 16 9 3 6 11 13 12 14 16 16 14 13 12 11 11 12 13 13 14 14 14 13 13 13 12 12 12 12 11 10 8 8 7 7 7 7 7 7 6 6 7 7
9 13 14 11 7 6 8 8 7 9 11 13 11 10 9 7 10 12 11 12 12 13 14 14 14 14 13 13 12 12 11 10 9 8 7 7 7 7 6 5 6 6 6 6
9 11 12 8 3 1 6 5 10 11 12 13 9 7 6 7 6 8 8 9 10 12 13 13 13 13 14 13 13 12 10 9 8 7 6 6 5 5 4 4 5 5 5 5
12 12 9 6 4 3 6 5 12 13 14 13 9 10 13 12 8 6 7 8 10 12 12 12 13 14 14 14 13 11 9 8 7 6 6 4 3 3 3 3 4 4 4 4
8 10 6 7 2 2 7 10 12 14 14 15 14 14 13 11 7 4 6 8 11 11 11 11 13 14 14 13 11 10 9 8 7 6 5 4 3 2 2 2 3 3 3 3
6 5 6 6 5 6 8 12 13 15 16 15 16 15 14 11 8 5 6 8 10 11 11 11 12 13 14 12 11 11 10 9 7 7 5 4 4 3 2 1 1 1 2 2
9 8 8 9 7 7 10 13 15 15 15 15 15 15 14 12 9 6 7 8 9 11 12 12 12 12 11 12 12 12 11 10 8 7 7 5 3 2 1 0 0 1 1 2
15 14 13 7 8 12 14 15 15 15 15 15 15 15 14 12 10 7 6 7 9 11 12 13 13 12 12 12 13 12 11 9 8 7 7 6 5 4 3 5 5 3 2 2
15 13 13 15 15 16 15 15 16 17 17 16 15 15 15 12 10 8 8 8 10 12 13 13 14 14 13 13 13 13 11 10 8 7 7 6 7 7 9 8 9 10 9 6
13 13 14 16 15 14 14 16 16 16 17 17 15 14 14 13 11 9 9 10 12 13 13 13 14 14 14 14 13 13 12 10 8 8 8 7 7 7 7 7 7 8 9 9
10 11 13 13 13 14 15 15 16 16 15 14 14 14 13 13 12 11 10 10 11 11 12 13 14 14 14 14 14 13 12 10 9 8 7 7 7 6 6 6 6 5 6 7
8 9 11 12 13 13 13 14 15 15 15 15 14 14 14 14 13 12 11 10 9 11 13 14 15 15 15 15 14 14 12 9 9 8 8 7 7 6 6 5 5 4 4 5
8 8 9 11 12 13 14 15 15 16 16 16 16 16 16 16 15 14 12 10 11 14 14 15 16 15 16 16 15 12 10 12 11 9 9 8 7 7 6 6 5 4 3 3
8 9 10 12 13 15 15 15 15 16 17 17 17 18 17 16 15 14 12 11 12 13 13 15 15 15 16 17 15 11 11 12 13 10 9 8 8 7 7 6 5 4 3 3
8 9 11 13 14 15 16 16 16 17 17 17 18 18 17 16 16 14 12 11 11 12 13 14 15 16 17 17 14 12 12 12 11 10 9 9 8 7 7 6 6 5 4 5
8 10 12 13 14 15 16 16 17 17 17 17 17 17 17 17 16 14 13 11 12 13 13 14 16 17 18 17 15 12 12 13 12 10 9 10 8 8 7 6 6 5 4 4
10 11 13 14 15 15 16 16 17 17 16 16 17 18 17 17 15 14 13 12 11 10 10 13 17 17 17 17 16 12 13 13 12 11 10 10 9 8 7 7 6 5 4 4
12 14 15 16 16 17 16 17 17 17 17 16 17 17 17 17 15 13 11 10 10 10 11 15 14 13 15 15 17 12 13 13 12 11 10 10 9 8 8 7 6 5 4 3
14 15 16 17 17 17 16 16 17 17 17 16 16 16 16 15 14 12 12 9 7 8 10 12 13 14 16 18 13 13 13 13 11 10 9 9 8 8 7 7 6 5 4 3
15 16 17 17 17 18 18 17 16 16 16 16 16 15 14 13 10 9 9 6 6 11 11 11 13 20 23 16 12 13 13 13 11 10 9 9 8 7 7 7 5 4 4 3
16 17 17 17 17 17 18 17 15 13 14 15 13 13 12 10 8 7 7 5 7 11 9 12 19 24 20 11 12 12 12 11 10 10 9 8 7 7 6 5 4 4 3 3
17 17 17 17 16 14 15 15 15 14 13 11 12 11 8 6 7 6 5 5 8 10 9 15 24 22 14 10 11 11 10 10 9 9 9 8 7 6 6 5 4 4 3 3
16 14 13 14 13 12 12 11 10 10 9 10 9 7 6 5 5 4 3 5 8 9 9 11 14 14 10 10 10 10 10 10 10 8 8 8 8 7 5 5 5 3 3 2
15 13 11 11 11 10 10 10 10 9 9 8 8 6 5 4 3 2 3 5 6 7 8 9 10 9 9 9 10 10 9 9 8 8 7 7 6 6 5 5 4 3 2 2
Wind_Direction
276 284 270 267 256 228 235 257 270 280 282 284 287 287 281 261 238 220 210 201 199 197 195 194 195 200 201 197 195 199 204 212 219 220 218 225 227 230 235 237 240 242 253 254
269 265 262 264 267 259 251 259 267 275 279 282 285 283 274 257 236 222 214 206 201 199 196 195 193 197 197 197 195 198 206 213 212 218 216 221 229 229 231 237 242 240 246 249
277 276 268 265 264 262 255 249 259 272 285 297 293 282 273 262 240 227 219 207 200 199 198 196 194 195 196 196 193 199 207 212 209 216 219 226 227 229 232 237 239 241 244 246
275 273 265 280 311 277 267 267 272 278 290 300 297 291 279 260 244 234 221 208 201 198 195 195 193 192 193 190 192 199 206 208 208 211 218 222 226 232 235 238 238 241 247 249
262 265 269 277 274 249 256 276 344 322 316 321 320 296 268 252 240 236 223 210 199 196 192 190 189 187 186 188 193 199 203 204 205 207 214 221 227 237 242 245 246 245 244 249
251 261 268 283 346 303 258 248 18 354 342 338 334 304 318 335 273 242 224 206 191 186 187 186 184 183 189 191 192 197 198 198 199 205 210 216 227 242 241 240 250 256 252 255
251 259 267 337 2 219 247 351 359 352 348 343 330 313 319 322 294 248 210 193 182 179 181 180 176 180 191 192 193 189 185 185 187 193 200 207 218 225 237 243 254 259 261 258
252 253 263 40 33 3 2 350 345 344 342 335 324 320 321 318 305 258 204 186 181 178 177 172 175 183 192 192 180 170 169 174 177 180 183 178 184 200 219 236 242 256 267 275
272 295 20 12 356 359 347 338 340 337 335 330 324 324 325 318 306 267 219 192 186 182 172 171 179 188 190 177 166 165 166 167 169 166 162 165 169 171 182 206 254 282 297 310
277 277 308 319 328 338 338 331 329 329 329 326 324 324 322 317 305 277 234 204 190 184 181 179 180 186 184 166 166 168 168 167 166 166 158 152 147 149 141 118 300 329 348 348
280 289 300 290 324 330 328 326 326 325 324 323 320 318 318 311 303 283 247 214 200 197 194 184 177 177 172 167 168 169 167 166 164 159 153 146 124 77 80 62 35 22 32 19
280 300 301 302 317 322 321 321 323 321 318 318 316 312 311 306 299 283 257 226 211 206 199 188 179 175 170 170 171 169 167 166 162 157 154 147 134 112 62 73 75 64 46 32
288 300 296 297 304 314 316 316 316 314 311 311 312 311 307 302 296 283 260 235 221 211 202 190 182 176 171 171 174 174 170 165 161 160 157 158 155 150 140 118 98 82 68 55
291 297 291 298 308 314 314 314 312 309 308 310 312 311 306 301 295 283 265 247 231 217 203 192 185 180 172 171 172 173 167 159 158 158 159 161 160 160 157 157 152 135 104 78
293 299 299 305 307 311 315 315 314 313 316 316 316 312 308 303 295 287 276 259 232 215 205 194 188 180 171 171 171 169 162 160 160 156 157 156 156 157 157 156 151 145 142 127
304 301 304 307 311 314 316 318 316 314 315 314 313 312 308 302 294 287 276 252 225 215 206 198 192 179 171 170 167 165 160 153 155 156 157 157 160 161 160 159 158 156 152 140
307 313 318 317 317 316 315 313 311 310 310 309 309 309 305 300 293 286 276 255 236 226 213 203 192 175 172 171 166 162 157 156 161 162 162 162 164 165 163 164 163 159 148 108
300 305 308 310 311 312 311 311 309 308 307 306 306 304 300 296 291 286 279 263 242 230 217 204 188 176 174 171 167 163 161 161 168 165 162 165 165 165 165 165 166 166 160 153
302 305 306 307 308 306 305 305 306 305 305 304 304 302 298 293 288 285 277 257 236 226 214 198 179 177 175 170 164 164 163 162 164 163 162 157 167 168 169 171 174 177 179 183
302 302 303 305 306 305 304 303 304 302 303 304 303 300 298 295 291 284 271 253 236 227 208 188 180 181 174 169 165 165 163 163 162 162 163 167 172 171 173 175 180 183 189 197
305 305 302 302 304 303 301 301 301 301 302 301 300 299 297 295 290 281 267 256 241 223 201 180 183 178 172 165 168 164 164 163 164 164 166 169 172 173 175 177 182 190 197 204
301 300 299 300 300 300 301 301 299 298 297 297 297 297 296 292 287 278 261 254 239 200 190 185 183 173 165 161 168 163 163 162 163 163 166 169 171 173 177 180 185 191 201 214
295 295 295 296 298 299 299 296 295 297 296 296 297 296 293 288 282 272 262 246 220 193 191 185 172 162 161 164 163 162 162 162 163 163 164 167 170 173 175 179 185 190 203 217
292 293 293 294 294 293 293 295 297 296 295 294 292 292 290 285 278 269 264 238 205 187 189 169 160 160 162 162 159 160 160 160 160 161 161 163 166 168 171 175 181 191 205 221
287 289 289 290 290 289 292 295 297 297 296 294 294 295 289 280 275 273 260 218 190 179 170 163 161 159 159 154 155 155 155 156 156 157 158 160 163 165 167 173 182 193 208 225
285 284 283 282 283 286 288 287 288 290 294 295 297 299 295 285 273 264 236 187 172 164 158 155 156 156 155 151 152 151 149 148 151 156 157 158 164 162 165 171 178 193 211 231
281 280 279 278 278 280 283 282 283 285 288 291 294 297 295 288 268 230 184 164 159 154 147 146 148 151 150 149 149 147 146 148 151 152 153 156 157 159 162 168 176 187 210 232